CELESTIS-02 1 25160U 98007D 09184.44468739 -.00000095 00000-0 15668-4 0 878 2 25160 107.9772 116.0752 0064949 298.2901 61.1681 14.20841618590758 CELESTIS-03 1 26034U 99070C 09183.94587939 .00000653 00000-0 94226-4 0 5789 2 26034 98.3703 196.2080 0017426 302.2850 57.6653 14.79833121512653 AMC-14 1 32708U 08011A 09181.95375941 .00000170 00000-0 10000-3 0 4450 2 32708 13.3466 117.7562 0056641 358.7847 180.3463 1.00270890 6040